sat.trackr.live / text

‹ back to catalog

ONEWEB-0288

NORAD 49078 · 2021-075D

PAYLOAD ACTIVE UNKNOWN

§ Identity

Operator
Country
UK
Launch date
2021-08-21
Launch site
TYMSC
Launch vehicle
Mass (kg)
RCS (m²)

Purposes: comms

External: N2YO · Heavens-Above · Gunter

§ Orbital elements

Epoch: 2026-09-19T22:25:00.509088Z

Period
109.72 min
Inclination
87.8984°
Eccentricity
0.0001803
Mean motion
13.12442711 rev/d
Perigee alt
1,212.4 km
Apogee alt
1,215.1 km
Semi-major
7,591.9 km
B*
2.6537e-5
RAAN
331.8478°
Arg perigee
106.4289°
Mean anomaly
253.7038°
Rev number
24,761

§ Raw data

ONEWEB-02881 49078U 21075D   26262.93403367  .00000022  00000+0  26537-4 0  99962 49078  87.8984 331.8478 0001803 106.4289 253.7038 13.12442711247614

JSON: /api/v1/satellites/49078 · /tle

For live sub-satellite position, see the globe view (requires WebGL).

§ Visibility from observer

Set your observer location to see the next 7 days of passes ≥ 10°. The values pass through the URL so the page stays shareable.

No JS? Fill the form by hand. The geolocation button needs JavaScript.